Location: Berbisdorf
(50.7638°N, 12.9442°E)
Time: 02:25:52
(UTC+00:00)

BREEZE-M DEB (TANK) - Pass Details

Date: 05 October 2020
Orbit: 333 x 12040 km, 49.7° (Epoch: 19 October)

Event Time Altitude Azimuth Distance (km) Brightness Sun altitude
Rises 00:38:04 0° 157° (SSE) 15,012 9.1 -39.4°
Reaches altitude 10° 00:55:03 10° 149° (SSE) 15,316 9.2 -37.8°
Maximum altitude 02:06:02 35° 106° (ESE) 12,166 9.1 -29.5°
Drops below altitude 10° 02:43:14 10° 60° (ENE) 9,109 9.3 -24.3°
Sets 02:48:59 0° 52° (NE) 8,996 9.6 -23.5°
